Home > Weather > Paphos > Past weeks

Flag for Cyprus Weather for the Past 2 Weeks in Paphos, Cyprus

Now
66 °F

Passing clouds.


Feels Like: 66 °F
Forecast: 60 / 69 °F
Wind: 12 mph from West

Location: Paphos Airport

Current Time: May 5, 2016 at 4:32:09 AM

Latest Report: May 5, 2016 at 4:00 AM


Visibility: N/A

Pressure: 29.80 "Hg

Humidity: 78%

Dew Point: 59 °F

Location of PaphosLocation

Historic Weather in Paphos — Graph

°F

Paphos Temperature Yesterday

Maximum temperature yesterday: 73 °F (at 2:00 PM)
Minimum temperature yesterday: 64 °F (at 11:30 AM)
Average temperature yesterday: 68 °F

High & Low Weather Summary for the Past Weeks

 TemperatureHumidityPressure
High84 °F (Apr 26, 1:30 PM)94% (Apr 27, 12:00 AM)30.04 "Hg (Apr 27, 12:00 AM)
Low52 °F (Apr 29, 3:30 AM)45% (Apr 20, 9:00 AM)29.62 "Hg (Apr 25, 4:00 AM)
Average68 °F68%29.86 "Hg
* Reported Apr 20 3:00 AM — May 5 3:30 AM, Paphos, Weather by CustomWeather, © 2016

Note: Actual official high and low records may vary slightly from our data, if they occured in-between our weather recording intervals... More about our weather records

Advertising

Paphos Weather History for the Previous 24 Hours

Scroll right to see more
 ConditionsComfort  
Time TempWeatherWind HumidityBarometerVisibility
3:30 AM
Thu, May 5
66 °FPassing clouds.14 mph73%29.83 "HgN/A
3:00 AM66 °FPassing clouds.12 mph78%29.80 "HgN/A
2:30 AM66 °FPassing clouds.10 mph73%29.83 "HgN/A
2:00 AM66 °FPassing clouds.12 mph78%29.83 "HgN/A
1:30 AM66 °FPassing clouds.13 mph73%29.83 "HgN/A
1:00 AM66 °FPassing clouds.12 mph78%29.86 "HgN/A
12:30 AM66 °FPassing clouds.12 mph78%29.86 "HgN/A
12:00 AM66 °FPassing clouds.15 mph73%29.86 "HgN/A
11:30 PM
Wed, May 4
66 °FPassing clouds.12 mph73%29.89 "HgN/A
11:00 PM66 °FPassing clouds.13 mph78%29.89 "HgN/A
10:30 PM66 °FPassing clouds.13 mph73%29.89 "HgN/A
10:00 PM66 °FPassing clouds.12 mph78%29.89 "HgN/A
9:30 PM66 °FPassing clouds.12 mph78%29.89 "HgN/A
9:00 PM66 °FPassing clouds.13 mph78%29.86 "HgN/A
8:30 PM66 °FScattered clouds.15 mph78%29.86 "HgN/A
8:00 PM66 °FScattered clouds.15 mph78%29.86 "HgN/A
7:30 PM66 °FScattered clouds.15 mph78%29.86 "HgN/A
7:00 PM66 °FScattered clouds.14 mph83%29.86 "HgN/A
6:30 PM66 °FSprinkles. Scattered clouds.17 mph83%29.86 "Hg6 mi
6:00 PM68 °FScattered clouds.15 mph78%29.86 "HgN/A
5:30 PM68 °FScattered clouds.17 mph73%29.86 "HgN/A
5:00 PM70 °FScattered clouds.20 mph64%29.86 "HgN/A
4:30 PM68 °FScattered clouds.17 mph73%29.86 "HgN/A
4:00 PM72 °FPassing clouds.16 mph69%29.86 "HgN/A
3:30 PM70 °FScattered clouds.20 mph69%29.86 "HgN/A
3:00 PM72 °FScattered clouds.17 mph65%29.86 "HgN/A
2:30 PM72 °FScattered clouds.21 mph69%29.86 "HgN/A
2:00 PM73 °FScattered clouds.20 mph65%29.86 "HgN/A
1:30 PM72 °FPassing clouds.20 mph65%29.86 "HgN/A
1:00 PM72 °FScattered clouds.20 mph69%29.86 "HgN/A
12:30 PM70 °FBroken clouds.17 mph73%29.86 "HgN/A
12:00 PM68 °FScattered clouds.15 mph83%29.86 "HgN/A
11:30 AM64 °FRain showers. Partly sunny.18 mph94%29.86 "Hg2 mi
11:00 AM72 °FScattered clouds.15 mph65%29.86 "HgN/A
10:30 AM70 °FScattered clouds.12 mph69%29.86 "HgN/A
10:00 AM68 °FBroken clouds.14 mph69%29.86 "HgN/A
9:30 AM68 °FScattered clouds.15 mph73%29.83 "HgN/A
9:00 AM70 °FScattered clouds.14 mph64%29.83 "HgN/A
8:30 AM68 °FScattered clouds.15 mph69%29.83 "HgN/A
8:00 AM68 °FScattered clouds.17 mph69%29.83 "HgN/A
7:30 AM66 °FScattered clouds.17 mph68%29.83 "HgN/A
7:00 AM66 °FScattered clouds.17 mph73%29.80 "HgN/A
6:30 AM66 °FPassing clouds.18 mph68%29.80 "HgN/A
6:00 AM66 °FPassing clouds.16 mph68%29.80 "HgN/A
5:30 AM66 °FPassing clouds.16 mph68%29.80 "HgN/A
5:00 AM66 °FPassing clouds.18 mph68%29.80 "HgN/A
4:30 AM66 °FPassing clouds.16 mph73%29.80 "HgN/A
4:00 AM66 °FPassing clouds.16 mph68%29.80 "HgN/A
Weather by CustomWeather, © 2016

See weather overviewHow to use our weather pages